Location: Whitehorse
(60.7170°N, 135.0500°W)
Time: 09:08:20
(UTC-07:00)

Envisat - Visible Passes

Search period start: 21 October 2019 00:00
Search period end: 31 October 2019 00:00
Orbit: 764 x 766 km, 98.1° (Epoch: 21 October)

Date Brightness Start Highest point End Pass type
(mag) Time Alt. Az. Time Alt. Az. Time Alt. Az.
21 Oct 3.5 19:59:23 10° S 20:04:26 64° WSW 20:09:32 10° NNW visible
21 Oct 6.0 21:41:30 10° WSW 21:44:31 16° W 21:47:33 10° NW visible
22 Oct 5.7 07:58:11 10° NE 08:02:19 24° E 08:06:25 10° SE visible
22 Oct 3.0 19:22:32 10° SSE 19:27:37 78° ENE 19:32:43 10° NNW visible
22 Oct 5.2 21:02:58 10° SW 21:07:12 26° W 21:11:29 10° NNW visible
23 Oct 6.2 07:22:15 10° NE 07:24:58 14° E 07:27:40 10° ESE visible
23 Oct 4.3 20:25:14 10° S 20:30:06 44° W 20:34:58 10° NNW visible
23 Oct 6.3 22:09:40 10° W 22:10:31 10° WNW 22:11:22 10° WNW visible
24 Oct 3.3 19:48:03 10° SSE 19:53:08 75° WSW 19:58:16 10° NNW visible
24 Oct 5.8 21:29:36 10° SW 21:33:04 18° W 21:36:34 10° NW visible
25 Oct 5.9 07:47:06 10° NE 07:50:53 21° E 07:54:41 10° SE visible
25 Oct 3.0 19:11:19 10° SSE 19:16:21 67° ENE 19:21:26 10° NNW visible
25 Oct 5.0 20:51:21 10° SSW 20:55:49 30° W 21:00:19 10° NNW visible
26 Oct 6.3 07:11:33 10° NE 07:13:30 12° ENE 07:15:27 10° E visible
26 Oct 3.9 20:13:48 10° S 20:18:45 51° W 20:23:44 10° NNW visible
26 Oct 6.1 21:56:55 10° WSW 21:59:01 12° WNW 22:01:09 10° NW visible
27 Oct 5.3 08:12:16 10° NNE 08:16:43 30° E 08:21:09 10° SSE visible
27 Oct 3.1 19:36:45 10° SSE 19:41:51 86° WSW 19:46:59 10° NNW visible
27 Oct 5.5 21:17:47 10° SW 21:21:39 21° W 21:25:30 10° NW visible
28 Oct 6.0 07:36:02 10° NE 07:39:27 18° E 07:42:52 10° SE visible
28 Oct 3.1 19:00:08 10° SE 19:05:07 58° ENE 19:10:08 10° NNW visible
28 Oct 4.7 20:39:47 10° SSW 20:44:27 35° W 20:49:08 10° NNW visible
29 Oct 6.6 07:01:47 10° ENE 07:02:00 10° ENE 07:02:13 10° ENE visible
29 Oct 3.6 20:02:24 10° S 20:07:25 60° WSW 20:12:29 10° NNW visible
29 Oct 6.0 21:44:45 10° WSW 21:47:33 15° W 21:50:22 10° NW visible
30 Oct 5.5 08:01:06 10° NNE 08:05:20 25° E 08:09:32 10° SE visible
30 Oct 3.0 19:25:29 10° SSE 19:30:35 82° ENE 19:35:42 10° NNW visible
30 Oct 5.3 21:06:05 10° SW 21:10:14 25° W 21:14:24 10° NNW visible
